Weather History for KDHT - October, 2013

Change the Weather History Date:

Sunday, October 13, 2013

  Actual Average Record
Temperature  
Mean Temperature 53 °F 57 °F  
Max Temperature 65 °F 72 °F 93 °F (1968)
Min Temperature 40 °F 42 °F 25 °F (2001)
Degree Days  
Heating Degree Days 12 9  
Month to date heating degree days 61 89  
Since 1 July heating degree days 75 152  
Cooling Degree Days 0 0  
Month to date cooling degree days 13 8  
Year to date cooling degree days 1576 1136  
Growing Degree Days 2 (Base 50)    
Moisture  
Dew Point 47 °F    
Average Humidity 71    
Maximum Humidity 86    
Minimum Humidity 55    
Precipitation  
Precipitation T in 0.05 in 1.26 in (2008)
Month to date precipitation T 0.61  
Year to date precipitation 6.66 15.61  
Snow  
Snow 0.00 in 0.00 in T in (1953)
Month to date snowfall 0.0 0.1  
Since 1 July snowfall 0.0 0.1  
Since 1 September snowfall 0.0 0.1  
Snow Depth 0.00 in    
Sea Level Pressure  
Sea Level Pressure 30.17 in    
Wind  
Wind Speed 9 mph (SSE)    
Max Wind Speed 24 mph    
Max Gust Speed 30 mph    
Visibility 10 miles    
Events      
T = Trace of Precipitation, MM = Missing Value Source: NWS Daily Summary

Daily Weather History Graph

Daily Weather History Graph

Search for Another Location

Airport or City:

Trip Planner

Search our weather history database for the weather conditions in past years. The results will help you decide how hot, cold, wet, or windy it might be!

Date:

Astronomy

Oct. 13, 2013 Rise Set
Actual Time 7:55 AM CDT 7:16 PM CDT
Civil Twilight 7:29 AM CDT 7:42 PM CDT
Nautical Twilight 6:59 AM CDT 8:12 PM CDT
Astronomical Twilight 6:30 AM CDT 8:41 PM CDT
Moon 4:00 PM CDT (10/13) 2:17 AM CDT (10/13)
Length of Visible Light 12h 12m
Length of Day
11h 21m
Waxing Gibbous, 69% of the Moon is Illuminated
Oct 13
Waxing Gibbous
Oct 18
Full
Oct 26
Last Quarter
Nov 3
New
Nov 9
First Quarter

Hourly Weather History & Observations

Time (CDT) Temp. Windchill Dew Point Humidity Pressure Visibility Wind Dir Wind Speed Gust Speed Precip Events Conditions
12:53 AM 48.0 °F - 35.1 °F 61% 30.17 in 10.0 mi East 5.8 mph - N/A   Clear
1:53 AM 46.0 °F - 35.1 °F 66% 30.18 in 10.0 mi Calm Calm - N/A   Clear
2:53 AM 46.0 °F - 35.1 °F 66% 30.18 in 10.0 mi Calm Calm - N/A   Clear
3:53 AM 44.1 °F - 35.1 °F 71% 30.17 in 10.0 mi Calm Calm - N/A   Clear
4:53 AM 41.0 °F 39.0 °F 33.1 °F 73% 30.19 in 10.0 mi WNW 3.5 mph - N/A   Clear
5:53 AM 41.0 °F - 33.1 °F 73% 30.19 in 10.0 mi Calm Calm - N/A   Partly Cloudy
6:53 AM 42.1 °F 40.2 °F 33.1 °F 70% 30.21 in 10.0 mi WNW 3.5 mph - N/A   Mostly Cloudy
7:53 AM 42.1 °F 37.7 °F 34.0 °F 73% 30.25 in 10.0 mi NNW 6.9 mph - N/A   Mostly Cloudy
8:53 AM 44.1 °F - 35.1 °F 71% 30.25 in 10.0 mi Calm Calm - N/A   Clear
9:53 AM 51.1 °F - 39.9 °F 66% 30.23 in 10.0 mi East 4.6 mph - N/A   Mostly Cloudy
10:53 AM 55.0 °F - 43.0 °F 64% 30.23 in 10.0 mi SE 5.8 mph - N/A   Overcast
11:53 AM 60.1 °F - 45.0 °F 57% 30.20 in 10.0 mi ESE 10.4 mph - N/A   Overcast
12:21 PM 62.6 °F - 46.4 °F 55% 30.27 in 10.0 mi ESE 12.7 mph - N/A   Overcast
12:53 PM 61.0 °F - 48.0 °F 62% 30.17 in 10.0 mi SE 10.4 mph - N/A   Overcast
1:53 PM 60.1 °F - 50.0 °F 69% 30.15 in 10.0 mi SE 8.1 mph - N/A   Overcast
2:43 PM 60.8 °F - 55.4 °F 82% 30.19 in 9.0 mi SE 11.5 mph - 0.00 in   Overcast
2:53 PM 60.1 °F - 55.0 °F 83% 30.12 in 9.0 mi SE 12.7 mph - 0.00 in   Overcast
3:32 PM 60.8 °F - 51.8 °F 72% 30.19 in 10.0 mi South 12.7 mph - N/A   Overcast
3:53 PM 60.1 °F - 52.0 °F 75% 30.12 in 10.0 mi South 13.8 mph - N/A   Overcast
4:02 PM 60.8 °F - 53.6 °F 77% 30.18 in 10.0 mi South 12.7 mph - N/A   Overcast
4:53 PM 63.0 °F - 55.0 °F 75% 30.10 in 8.0 mi SSE 17.3 mph - N/A   Overcast
5:53 PM 64.0 °F - 55.0 °F 73% 30.10 in 10.0 mi SSE 15.0 mph - N/A   Overcast
6:53 PM 62.1 °F - 54.0 °F 75% 30.11 in 10.0 mi SSE 17.3 mph 25.3 mph N/A   Overcast
7:53 PM 61.0 °F - 53.1 °F 75% 30.12 in 10.0 mi SSE 20.7 mph - N/A   Overcast
8:39 PM 60.8 °F - 53.6 °F 77% 30.18 in 10.0 mi SSE 16.1 mph - N/A   Scattered Clouds
8:53 PM 60.1 °F - 53.1 °F 78% 30.12 in 10.0 mi SSE 16.1 mph - N/A   Mostly Cloudy
9:14 PM 59.0 °F - 53.6 °F 82% 30.18 in 10.0 mi SSE 17.3 mph - N/A   Mostly Cloudy
9:26 PM 57.2 °F - 53.6 °F 88% 30.18 in 10.0 mi SSE 12.7 mph - N/A   Mostly Cloudy
9:38 PM 57.2 °F - 53.6 °F 88% 30.17 in 10.0 mi SSE 11.5 mph - N/A   Mostly Cloudy
9:53 PM 57.0 °F - 53.1 °F 87% 30.10 in 10.0 mi South 9.2 mph - N/A   Mostly Cloudy
10:49 PM 57.2 °F - 53.6 °F 88% 30.18 in 10.0 mi South 13.8 mph - N/A   Mostly Cloudy
10:53 PM 57.0 °F - 54.0 °F 89% 30.09 in 10.0 mi South 13.8 mph - N/A   Mostly Cloudy
11:07 PM 57.2 °F - 53.6 °F 88% 30.17 in 10.0 mi South 11.5 mph - N/A   Overcast
11:36 PM 57.2 °F - 53.6 °F 88% 30.17 in 10.0 mi South 16.1 mph 26.5 mph N/A   Overcast
11:53 PM 57.9 °F - 54.0 °F 87% 30.05 in 10.0 mi SSE 18.4 mph - N/A   Overcast